EW6659 Weather Reports


time (UTC)temp
C
wind
direction
speed
KPH
gust
KPH
rain 1hr
cm
rain 24hr
cm
rain mn
cm
humidity
%
barometer
mb
20260507000032 7 270 0.0 0.0 0.00 0.00 0.00 1 1009.4
20260506234528 7 290 0.0 0.0 0.00 0.00 0.00 1 1009.2
20260506233023 7 290 0.0 0.0 0.00 0.00 0.00 1 1009.3
20260506231519 7 255 0.0 0.0 0.00 0.00 0.00 1 1008.4
20260506230014 7 255 0.0 0.0 0.00 0.00 0.00 1 1008.5
20260506224510 8 255 0.0 0.0 0.00 0.00 0.00 1 1008.5
20260506223005 8 255 0.0 0.0 0.00 0.00 0.00 1 1008.8
20260506221500 8 284 0.0 0.0 0.00 0.00 0.00 1 1009.0
20260506220057 8 340 0.0 0.0 0.00 0.00 0.00 1 1008.8
20260506214552 8 322 0.0 0.0 0.00 0.00 0.00 1 1008.6
20260506213048 8 293 0.0 0.0 0.00 0.00 0.00 1 1008.6
20260506211543 8 309 0.0 0.0 0.00 0.00 0.00 1 1008.4
20260506210038 7 332 0.0 3.2 0.00 0.00 0.00 1 1008.4
20260506204535 7 322 0.0 0.0 0.00 0.00 0.00 1 1008.1
20260506203030 7 320 0.0 0.0 0.00 0.00 0.00 1 1007.9
20260506201539 7 311 0.0 0.0 0.00 0.00 0.00 1 1007.7
20260506200026 7 333 0.0 0.0 0.00 0.00 0.00 1 1007.8
20260506194517 7 306 0.0 0.0 0.00 0.00 0.00 1 1007.8
20260506193013 7 293 0.0 0.0 0.00 0.00 0.00 1 1007.7
20260506191510 7 234 0.0 1.6 0.00 0.00 0.00 1 1007.5
20260506190003 7 23 0.0 0.0 0.00 0.00 0.00 1 1007.4
20260506184603 7 335 0.0 9.7 0.00 0.00 0.00 1 1007.4
20260506183055 8 319 0.0 0.0 0.00 0.00 0.00 1 1007.0
20260506181551 8 316 0.0 0.0 0.00 0.00 0.00 1 1006.8
20260506180045 8 46 0.0 0.0 0.00 0.00 0.00 1 1006.7
20260506174541 8 34 0.0 0.0 0.00 0.00 0.00 1 1006.5
20260506173043 8 352 0.0 0.0 0.00 0.00 0.00 1 1006.5
20260506171542 8 277 0.0 0.0 0.00 0.00 0.00 1 1006.5
20260506170026 7 355 0.0 0.0 0.00 0.00 0.00 1 1006.4
20260506164525 7 326 0.0 0.0 0.00 0.00 0.00 1 1006.5
20260506163031 7 304 0.0 0.0 0.00 0.00 0.00 1 1006.6
20260506161513 7 60 0.0 0.0 0.00 0.00 0.00 1 1006.6
20260506160013 7 18 0.0 0.0 0.00 0.00 0.00 1 1006.7
20260506154505 7 55 0.0 0.0 0.00 0.00 0.00 1 1006.7
20260506153101 7 32 0.0 0.0 0.00 0.00 0.00 1 1006.8
20260506151556 7 50 0.0 0.0 0.00 0.00 0.00 1 1006.7
20260506150052 7 50 0.0 0.0 0.00 0.00 0.00 1 1006.4
20260506144547 7 32 0.0 0.0 0.00 0.00 0.00 1 1006.2
20260506143042 7 52 0.0 0.0 0.00 0.00 0.00 1 1006.4
20260506141537 7 349 0.0 0.0 0.00 0.00 0.00 1 1006.4
20260506140039 7 33 0.0 0.0 0.00 0.00 0.00 1 1006.5
20260506134529 7 346 0.0 1.6 0.00 0.00 0.00 1 1006.5
20260506133024 7 305 0.0 0.0 0.00 0.00 0.00 1 1006.6
20260506131522 7 354 0.0 0.0 0.00 0.00 0.00 1 1006.7
20260506130016 7 316 0.0 0.0 0.00 0.00 0.00 1 1006.6
20260506124511 7 37 0.0 0.0 0.00 0.00 0.00 1 1006.5
20260506123007 7 11 0.0 0.0 0.00 0.00 0.00 1 1006.4
20260506121502 7 356 0.0 0.0 0.00 0.00 0.00 1 1006.4
20260506120110 7 357 0.0 0.0 0.00 0.00 0.00 1 1006.4
20260506114609 7 342 0.0 0.0 0.00 0.00 0.00 1 1006.5
20260506113050 7 34 0.0 0.0 0.00 0.00 0.00 1 1006.6
20260506111551 7 303 0.0 0.0 0.00 0.00 0.00 1 1006.8
20260506110042 7 317 0.0 0.0 0.00 0.00 0.00 1 1006.9
20260506104542 7 322 0.0 0.0 0.00 0.00 0.00 1 1006.8
20260506103033 7 20 0.0 0.0 0.00 0.00 0.00 1 1006.5
20260506101528 7 64 0.0 0.0 0.00 0.00 0.00 1 1006.6
20260506100023 7 322 0.0 0.0 0.00 0.00 0.00 1 1006.8
20260506094520 7 42 0.0 0.0 0.00 0.00 0.00 1 1007.1
20260506093023 7 314 0.0 0.0 0.00 0.00 0.00 1 1007.4
20260506091513 7 334 0.0 0.0 0.00 0.00 0.00 1 1007.3
20260506090005 7 340 0.0 1.6 0.00 0.00 0.00 1 1007.5
20260506084503 8 351 0.0 4.8 0.00 0.00 0.00 1 1007.3
20260506083057 8 43 0.0 0.0 0.00 0.00 0.00 1 1007.2
20260506081552 8 311 0.0 0.0 0.00 0.00 0.00 1 1007.4
20260506080104 8 323 0.0 0.0 0.00 0.00 0.00 1 1007.1
20260506073041 8 357 0.0 0.0 0.00 0.00 0.00 1 1006.9
20260506071536 9 45 0.0 0.0 0.00 0.00 0.00 1 1006.7
20260506061519 9 35 0.0 0.0 0.00 0.00 0.00 1 1007.2
20260506044604 9 40 0.0 0.0 0.00 0.00 0.00 1 1008.5
20260506043052 9 54 0.0 0.0 0.00 0.00 0.00 1 1008.4
20260506041602 9 106 0.0 0.0 0.00 0.00 0.00 1 1008.8
20260506040039 9 106 0.0 0.0 0.00 0.00 0.00 1 1008.7
20260506034536 9 106 0.0 0.0 0.00 0.00 0.00 1 1008.5
20260506033034 9 70 0.0 0.0 0.00 0.00 0.00 1 1008.8
20260506031527 9 194 0.0 0.0 0.00 0.00 0.00 1 1008.9
20260506030022 9 81 0.0 0.0 0.00 0.00 0.00 1 1009.0
20260506024517 9 32 0.0 0.0 0.00 0.00 0.00 1 1008.8
20260506023014 10 21 0.0 0.0 0.00 0.00 0.00 1 1008.9
20260506021510 10 344 0.0 0.0 0.00 0.00 0.00 1 1009.1
20260506020005 10 266 0.0 0.0 0.00 0.00 0.00 1 1009.1
20260506014503 10 34 0.0 0.0 0.00 0.00 0.00 1 1008.4
20260506013057 10 40 0.0 0.0 0.00 0.00 0.00 1 1009.0
20260506011552 10 44 0.0 0.0 0.00 0.00 0.00 1 1008.8
20260506010048 11 323 0.0 3.2 0.00 0.00 0.00 26 1008.9
20260506004545 12 342 0.0 14.5 0.00 0.00 0.00 49 1008.2
20260506003039 13 304 0.0 4.8 0.00 0.00 0.00 50 1007.9
20260506001542 13 302 0.0 3.2 0.00 0.00 0.00 50 1007.6